• In Belarus
  • List of Countries
  • For 7 days
  • Water Temperature
  • Satellite Maps
  • Weather Map
  • Weather Widgets
  • user-avatar
    Login

    Hourly Weather Al-Jahra

    Today, 22 October, Monday

    Time Temperature Precipitation Wind Pressure Humidity
    00:00 +32°C° 0.1 mm 5 mps 755 mmHg 55%
    01:00 +30°C° 0 mm 4 mps 755 mmHg 57%
    02:00 +30°C° 0 mm 4 mps 755 mmHg 59%
    03:00 +29°C° 0 mm 4 mps 755 mmHg 60%
    04:00 +29°C° 0.2 mm 4 mps 755 mmHg 61%
    05:00 +29°C° 0.2 mm 4 mps 755 mmHg 62%
    06:00 +29°C° 0.2 mm 4 mps 755 mmHg 63%
    07:00 +30°C° 0 mm 5 mps 755 mmHg 55%
    08:00 +33°C° 0 mm 5 mps 756 mmHg 47%
    09:00 +35°C° 0 mm 5 mps 756 mmHg 39%
    10:00 +36°C° 0 mm 5 mps 756 mmHg 33%
    11:00 +37°C° 0 mm 4 mps 755 mmHg 28%
    12:00 +38°C° 0 mm 4 mps 755 mmHg 23%
    13:00 +38°C° 0 mm 4 mps 755 mmHg 23%
    14:00 +38°C° 0 mm 3 mps 754 mmHg 23%
    15:00 +38°C° 0 mm 3 mps 754 mmHg 23%
    16:00 +37°C° 0 mm 4 mps 754 mmHg 31%
    17:00 +35°C° 0 mm 5 mps 754 mmHg 40%
    18:00 +34°C° 0 mm 5 mps 754 mmHg 49%
    19:00 +33°C° 0.1 mm 5 mps 754 mmHg 53%
    20:00 +33°C° 0.1 mm 5 mps 754 mmHg 57%
    21:00 +32°C° 0.1 mm 5 mps 755 mmHg 61%
    22:00 +32°C° 0.1 mm 4 mps 755 mmHg 63%
    23:00 +32°C° 0.1 mm 4 mps 755 mmHg 64%

    Tomorrow, 23 October, Tuesday

    Time Temperature Precipitation Wind Pressure Humidity
    00:00 +30°C° 0.1 mm 3 mps 755 mmHg 66%
    01:00 +30°C° 0 mm 2 mps 755 mmHg 66%
    02:00 +30°C° 0 mm 2 mps 755 mmHg 66%
    03:00 +29°C° 0 mm 1 mps 755 mmHg 66%
    04:00 +29°C° 0 mm 1 mps 755 mmHg 65%
    05:00 +29°C° 0 mm 1 mps 755 mmHg 64%
    06:00 +28°C° 0 mm 1 mps 755 mmHg 64%
    07:00 +30°C° 0 mm 2 mps 756 mmHg 56%
    08:00 +31°C° 0 mm 2 mps 756 mmHg 49%
    09:00 +34°C° 0 mm 2 mps 756 mmHg 42%
    10:00 +35°C° 0 mm 2 mps 756 mmHg 38%
    11:00 +36°C° 0 mm 2 mps 756 mmHg 34%
    12:00 +37°C° 0 mm 2 mps 756 mmHg 30%
    13:00 +37°C° 0 mm 2 mps 755 mmHg 27%
    14:00 +37°C° 0 mm 3 mps 755 mmHg 25%
    15:00 +38°C° 0 mm 3 mps 754 mmHg 23%
    16:00 +36°C° 0 mm 3 mps 754 mmHg 24%
    17:00 +35°C° 0 mm 3 mps 754 mmHg 26%
    18:00 +34°C° 0 mm 3 mps 754 mmHg 27%
    19:00 +33°C° 0 mm 3 mps 754 mmHg 28%
    20:00 +31°C° 0 mm 3 mps 755 mmHg 28%
    21:00 +31°C° 0 mm 3 mps 755 mmHg 29%
    22:00 +30°C° 0 mm 3 mps 755 mmHg 29%
    23:00 +30°C° 0 mm 3 mps 755 mmHg 28%

    Day after tomorrow, 24 October, Wednesday

    Time Temperature Precipitation Wind Pressure Humidity
    00:00 +29°C° 0 mm 3 mps 755 mmHg 28%
    01:00 +29°C° 0 mm 4 mps 754 mmHg 29%
    02:00 +29°C° 0 mm 4 mps 754 mmHg 30%
    03:00 +28°C° 0 mm 4 mps 754 mmHg 31%
    04:00 +28°C° 0 mm 4 mps 754 mmHg 33%
    05:00 +27°C° 0 mm 3 mps 754 mmHg 35%
    06:00 +27°C° 0 mm 3 mps 754 mmHg 37%
    07:00 +29°C° 0 mm 3 mps 754 mmHg 35%
    08:00 +30°C° 0 mm 2 mps 755 mmHg 32%
    09:00 +32°C° 0 mm 1 mps 755 mmHg 30%
    10:00 +33°C° 0 mm 1 mps 755 mmHg 27%
    11:00 +34°C° 0 mm 1 mps 754 mmHg 23%
    12:00 +33°C° 0 mm 0 mps 754 mmHg 20%
    13:00 +36°C° 0 mm 1 mps 753 mmHg 18%
    14:00 +36°C° 0 mm 1 mps 753 mmHg 17%
    15:00 +37°C° 0 mm 1 mps 752 mmHg 16%
    16:00 +35°C° 0 mm 1 mps 752 mmHg 18%
    17:00 +33°C° 0 mm 1 mps 752 mmHg 20%
    18:00 +32°C° 0 mm 1 mps 752 mmHg 22%
    19:00 +32°C° 0 mm 2 mps 752 mmHg 23%
    20:00 +31°C° 0 mm 2 mps 753 mmHg 24%
    21:00 +31°C° 0 mm 3 mps 753 mmHg 25%
    22:00 +31°C° 0 mm 3 mps 753 mmHg 26%
    23:00 +31°C° 0 mm 3 mps 753 mmHg 28%

    25 October, Thursday

    Time Temperature Precipitation Wind Pressure Humidity
    00:00 +30°C° 0 mm 3 mps 752 mmHg 29%
    01:00 +30°C° 0 mm 3 mps 752 mmHg 30%
    02:00 +30°C° 0 mm 3 mps 752 mmHg 31%
    03:00 +30°C° 0 mm 3 mps 751 mmHg 32%
    04:00 +30°C° 0 mm 4 mps 752 mmHg 33%
    05:00 +30°C° 0 mm 4 mps 752 mmHg 33%
    06:00 +30°C° 0 mm 4 mps 752 mmHg 34%
    07:00 +33°C° 0 mm 5 mps 752 mmHg 30%
    08:00 +34°C° 0 mm 6 mps 753 mmHg 26%
    09:00 +35°C° 0 mm 7 mps 753 mmHg 23%
    10:00 +38°C° 0 mm 7 mps 753 mmHg 21%
    11:00 +40°C° 0 mm 7 mps 752 mmHg 18%
    12:00 +41°C° 0 mm 7 mps 751 mmHg 16%
    13:00 +43°C° 0 mm 7 mps 751 mmHg 15%
    14:00 +42°C° 0 mm 6 mps 750 mmHg 15%
    15:00 +44°C° 0 mm 6 mps 750 mmHg 15%
    16:00 +41°C° 0 mm 6 mps 750 mmHg 19%
    17:00 +39°C° 0 mm 6 mps 750 mmHg 23%
    18:00 +38°C° 0 mm 6 mps 750 mmHg 27%
    19:00 +36°C° 0 mm 7 mps 750 mmHg 29%
    20:00 +35°C° 0 mm 7 mps 751 mmHg 32%
    21:00 +35°C° 0 mm 7 mps 751 mmHg 35%
    22:00 +35°C° 0 mm 7 mps 751 mmHg 34%
    23:00 +35°C° 0 mm 7 mps 751 mmHg 34%

    26 October, Friday

    Time Temperature Precipitation Wind Pressure Humidity
    00:00 +35°C° 0 mm 7 mps 751 mmHg 34%
    01:00 +34°C° 0.1 mm 6 mps 751 mmHg 32%
    02:00 +34°C° 0.1 mm 5 mps 751 mmHg 31%
    03:00 +34°C° 0.1 mm 5 mps 751 mmHg 29%
    04:00 +34°C° 0 mm 5 mps 751 mmHg 28%
    05:00 +34°C° 0 mm 4 mps 751 mmHg 27%
    06:00 +34°C° 0 mm 4 mps 752 mmHg 26%
    07:00 +35°C° 0 mm 5 mps 752 mmHg 25%
    08:00 +36°C° 0 mm 5 mps 753 mmHg 23%
    09:00 +39°C° 0 mm 6 mps 753 mmHg 22%
    10:00 +39°C° 0.1 mm 6 mps 753 mmHg 21%
    11:00 +40°C° 0.1 mm 7 mps 753 mmHg 20%
    12:00 +41°C° 0.1 mm 7 mps 752 mmHg 20%
    13:00 +41°C° 0 mm 6 mps 752 mmHg 19%
    14:00 +41°C° 0 mm 6 mps 752 mmHg 19%
    15:00 +42°C° 0 mm 5 mps 751 mmHg 18%
    16:00 +40°C° 0 mm 5 mps 752 mmHg 20%
    17:00 +38°C° 0 mm 4 mps 752 mmHg 21%
    18:00 +37°C° 0 mm 3 mps 752 mmHg 23%
    19:00 +36°C° 0.3 mm 4 mps 753 mmHg 26%
    20:00 +34°C° 0.3 mm 4 mps 753 mmHg 28%
    21:00 +33°C° 0.3 mm 4 mps 754 mmHg 30%
    22:00 +33°C° 0 mm 4 mps 754 mmHg 32%
    23:00 +33°C° 0 mm 4 mps 754 mmHg 33%

    27 October, Saturday

    Time Temperature Precipitation Wind Pressure Humidity
    00:00 +32°C° 0 mm 5 mps 754 mmHg 35%
    01:00 +32°C° 0 mm 5 mps 754 mmHg 36%
    02:00 +30°C° 0 mm 5 mps 754 mmHg 38%
    03:00 +30°C° 0 mm 4 mps 754 mmHg 39%
    04:00 +30°C° 0.2 mm 6 mps 755 mmHg 41%
    05:00 +30°C° 0.2 mm 7 mps 756 mmHg 44%
    06:00 +31°C° 0.2 mm 8 mps 757 mmHg 46%
    07:00 +31°C° 0.3 mm 8 mps 757 mmHg 45%
    08:00 +31°C° 0.3 mm 9 mps 758 mmHg 43%
    09:00 +31°C° 0.3 mm 9 mps 758 mmHg 42%
    10:00 +32°C° 0.2 mm 8 mps 758 mmHg 40%
    11:00 +33°C° 0.2 mm 8 mps 757 mmHg 38%
    12:00 +34°C° 0.2 mm 7 mps 757 mmHg 36%
    13:00 +34°C° 0.1 mm 7 mps 756 mmHg 36%
    14:00 +34°C° 0.1 mm 7 mps 756 mmHg 35%
    15:00 +34°C° 0.1 mm 6 mps 756 mmHg 34%
    16:00 +34°C° 0 mm 6 mps 756 mmHg 35%
    17:00 +33°C° 0 mm 5 mps 756 mmHg 36%
    18:00 +33°C° 0 mm 4 mps 757 mmHg 37%
    19:00 +32°C° 0 mm 4 mps 757 mmHg 38%
    20:00 +32°C° 0 mm 4 mps 757 mmHg 38%
    21:00 +30°C° 0 mm 3 mps 758 mmHg 39%
    22:00 +30°C° 0 mm 4 mps 758 mmHg 37%
    23:00 +29°C° 0 mm 4 mps 758 mmHg 36%

    28 October, Sunday

    Time Temperature Precipitation Wind Pressure Humidity
    00:00 +29°C° 0 mm 5 mps 758 mmHg 35%
    01:00 +28°C° 0 mm 5 mps 758 mmHg 30%
    02:00 +28°C° 0 mm 6 mps 757 mmHg 26%
    03:00 +27°C° 0 mm 6 mps 757 mmHg 22%
    04:00 +27°C° 0 mm 6 mps 758 mmHg 22%
    05:00 +26°C° 0 mm 5 mps 758 mmHg 21%
    06:00 +26°C° 0 mm 5 mps 758 mmHg 21%
    07:00 +27°C° 0 mm 5 mps 759 mmHg 19%
    08:00 +27°C° 0 mm 6 mps 759 mmHg 18%
    09:00 +28°C° 0 mm 6 mps 760 mmHg 16%
    10:00 +29°C° 0 mm 6 mps 759 mmHg 15%
    11:00 +30°C° 0 mm 6 mps 759 mmHg 14%
    12:00 +32°C° 0 mm 6 mps 759 mmHg 13%
    13:00 +33°C° 0 mm 6 mps 758 mmHg 12%
    14:00 +33°C° 0 mm 6 mps 758 mmHg 12%
    15:00 +33°C° 0 mm 6 mps 757 mmHg 12%
    16:00 +32°C° 0 mm 5 mps 757 mmHg 12%
    17:00 +32°C° 0 mm 5 mps 757 mmHg 11%
    18:00 +30°C° 0 mm 4 mps 757 mmHg 11%
    19:00 +30°C° 0 mm 4 mps 757 mmHg 11%
    20:00 +29°C° 0 mm 5 mps 757 mmHg 12%
    21:00 +28°C° 0 mm 5 mps 758 mmHg 12%
    22:00 +28°C° 0 mm 5 mps 757 mmHg 12%
    23:00 +27°C° 0 mm 5 mps 757 mmHg 13%
    Show more